GFSNW_850_rhum_120.txt.gz
RH
44 32 25 24 28 29 33 38 67 44 38 71 82 82 74 79 69 76 66 64 54 66 72 70 77 74 64 65 70 81 72 78 89 67 57 60 71 80 69 81 88 78 72 79
46 33 30 29 28 33 29 36 41 38 35 79 77 69 68 71 66 67 66 64 59 52 67 70 70 69 64 70 71 70 66 82 84 56 59 60 70 65 65 60 69 79 71 71
44 34 30 34 33 32 34 37 73 41 45 67 60 68 70 66 70 67 68 63 62 58 61 60 62 59 59 73 72 77 72 71 67 61 52 57 64 55 54 63 82 62 56 78
43 39 27 34 35 36 37 42 72 67 73 69 66 66 66 65 64 66 66 58 64 65 57 57 56 61 57 62 64 71 69 81 76 60 52 54 59 54 53 78 64 68 51 63
29 40 32 33 36 36 40 53 61 62 76 76 62 66 62 64 67 65 59 57 61 60 57 53 55 62 59 54 56 58 61 77 67 61 51 59 61 47 49 58 58 60 57 57
26 34 38 28 38 35 44 50 51 50 85 71 57 50 59 62 70 65 67 62 64 58 55 59 59 62 61 61 62 60 62 67 70 65 48 48 46 38 44 52 53 49 59 43
39 28 33 30 40 35 38 48 52 50 52 62 54 63 67 66 66 64 66 74 65 56 62 65 74 79 75 72 68 67 62 62 69 75 53 48 29 47 42 47 46 49 49 44
48 30 30 31 48 46 42 43 48 52 49 56 61 67 65 67 70 69 69 64 64 64 62 51 46 42 49 57 62 66 65 60 58 60 53 31 27 36 49 52 38 39 45 41
60 35 39 33 52 58 56 57 57 50 51 46 56 63 67 55 58 56 66 60 67 66 58 53 51 34 45 44 50 60 65 63 61 64 62 33 18 33 46 45 42 37 43 41
78 38 50 43 47 57 61 59 60 53 57 50 54 60 60 67 66 57 66 69 71 69 58 59 59 48 54 49 49 59 66 65 73 61 59 36 28 42 47 40 22 35 46 46
87 54 52 53 52 54 55 57 62 63 55 51 48 52 55 67 70 53 62 68 73 68 67 62 55 59 54 59 50 48 47 52 61 61 68 59 41 47 42 37 36 46 49 46
95 89 39 60 57 57 59 62 66 69 67 62 59 56 55 52 54 56 64 70 68 63 64 67 63 62 64 54 40 52 54 35 32 42 36 37 40 45 38 39 42 45 45 44
99 95 89 40 70 67 63 64 70 74 70 68 72 60 58 63 64 59 63 75 67 73 71 70 68 68 58 57 57 52 46 50 45 47 29 38 38 39 34 36 41 38 41 38
99 98 100 72 47 81 74 72 73 75 69 80 65 60 59 56 56 64 64 68 73 77 77 74 70 69 62 55 53 53 37 50 44 46 37 38 38 38 31 34 35 36 39 40
100 100 99 100 48 66 92 86 83 80 71 73 64 63 60 61 59 59 68 72 77 78 82 76 74 69 70 65 73 65 51 42 40 37 32 28 29 32 34 37 40 40 42 39
100 100 99 100 83 72 100 99 78 82 83 68 80 62 62 64 72 77 81 82 85 80 85 79 77 74 69 71 65 43 53 48 42 33 33 36 35 41 43 45 42 44 45 42
100 100 100 100 99 68 99 79 72 66 85 74 78 80 73 86 86 93 95 93 91 87 85 91 80 83 79 80 68 34 38 36 43 42 43 48 43 47 46 38 26 24 28 37
100 100 100 100 100 92 98 92 68 67 78 68 93 88 64 90 98 96 97 97 96 92 88 96 88 90 91 95 60 49 45 44 44 44 46 44 46 46 24 24 27 28 28 30
100 100 100 100 100 100 98 98 100 80 81 99 99 87 79 87 97 96 100 99 96 98 92 90 86 79 94 72 64 60 54 54 48 48 50 46 32 23 24 25 28 34 34 41
100 100 100 99 98 99 100 100 100 100 99 100 96 76 72 81 98 97 93 100 87 94 83 94 96 82 66 62 48 51 48 46 51 44 41 39 28 25 28 30 33 38 41 43
100 100 100 100 100 100 100 100 100 99 99 99 98 71 80 83 84 82 91 88 90 98 82 91 93 87 68 49 52 51 56 53 46 45 42 38 25 28 29 28 30 32 36 42
98 99 100 99 100 100 100 99 98 99 87 99 98 91 75 78 72 82 96 88 92 97 87 96 95 74 54 43 33 35 45 63 58 50 49 40 28 30 31 31 31 33 34 37
100 100 100 99 99 98 98 97 96 94 88 98 99 96 82 89 73 84 88 99 94 81 94 92 74 55 42 40 38 30 45 59 65 60 48 31 32 33 34 34 35 35 35 39
99 98 97 97 98 94 89 80 83 68 74 95 89 97 84 85 91 79 95 74 77 94 99 85 56 44 39 34 30 28 32 33 33 34 34 33 34 35 36 35 35 36 36 36
99 99 96 98 86 80 80 71 67 77 81 90 84 84 79 88 90 83 84 95 98 82 78 68 44 36 37 37 29 32 36 37 37 38 40 38 37 36 36 36 35 36 36 39
100 99 99 100 98 95 87 80 75 82 91 77 70 89 94 91 84 96 94 85 89 75 82 43 35 34 34 34 27 34 36 36 36 36 38 41 42 41 38 34 33 35 37 39
98 97 98 96 89 80 85 78 74 80 82 88 94 97 88 89 91 96 79 85 78 56 32 31 33 37 36 28 27 35 36 36 37 40 42 42 41 40 41 36 31 36 38 42

GFSNW_850_rhum_123.txt.gz
RH
43 30 29 26 24 26 26 40 54 33 45 72 66 73 60 65 61 66 56 54 47 54 55 55 60 62 56 56 61 67 62 67 82 62 47 50 55 64 72 98 97 82 76 76
43 30 30 30 26 28 25 48 48 35 37 72 65 60 60 61 57 56 55 53 50 47 55 59 56 56 56 59 61 60 58 70 78 61 52 50 64 54 56 56 65 78 85 67
27 38 26 34 26 26 29 46 66 55 53 59 46 58 59 58 66 56 56 51 52 51 51 49 51 50 52 61 62 71 67 64 66 68 48 48 55 48 50 56 82 65 54 44
35 35 36 28 35 24 29 38 54 56 66 49 47 52 51 53 55 58 56 50 50 48 47 45 44 44 44 52 65 62 62 76 75 59 49 44 46 48 45 61 62 63 44 45
58 31 38 33 36 27 33 49 48 59 54 59 52 57 51 48 52 52 48 51 45 45 45 36 39 45 43 39 52 52 54 72 57 59 34 44 52 45 45 43 42 52 50 49
65 51 33 37 32 31 33 37 42 54 64 53 47 36 40 47 53 53 54 48 48 46 43 47 48 49 46 45 47 48 52 61 60 61 38 43 37 26 32 35 37 44 52 38
70 63 34 32 38 35 33 34 39 44 32 44 37 45 51 50 54 56 52 60 53 58 59 58 61 60 55 52 51 52 52 54 58 70 51 54 27 39 39 30 32 38 39 35
83 72 40 34 45 47 38 33 39 50 35 37 39 47 48 52 56 59 57 52 56 61 57 44 34 36 44 49 51 54 55 53 56 60 45 31 21 28 38 44 32 28 36 34
95 83 51 40 51 57 56 53 51 42 41 34 42 44 46 43 38 42 55 64 62 65 47 44 45 30 33 33 47 50 54 56 60 48 59 35 21 30 36 38 35 30 34 32
97 89 74 54 51 60 61 60 57 55 56 48 50 39 43 50 44 42 50 59 70 70 46 49 46 38 42 41 39 58 61 61 72 60 58 39 24 35 42 40 29 34 38 37
100 100 92 55 58 64 64 59 60 60 66 58 44 42 53 61 57 37 56 62 66 63 58 48 43 44 39 48 33 36 42 48 54 49 55 64 32 44 38 32 34 39 40 42
99 99 99 89 56 64 67 64 62 66 68 67 58 56 51 50 55 51 57 53 57 47 53 51 42 48 44 38 30 37 44 28 26 34 36 26 31 28 31 39 37 36 38 41
100 99 99 100 73 71 75 71 68 73 75 72 74 63 60 61 58 54 56 56 58 72 72 54 48 54 39 41 41 32 34 30 41 35 23 25 25 30 32 32 33 34 37 39
100 100 100 99 100 65 82 86 75 78 75 78 66 59 58 56 57 64 62 72 68 74 76 64 59 53 41 39 34 42 25 38 36 33 28 29 30 30 31 33 34 36 41 39
100 100 100 100 100 98 66 83 89 84 74 80 73 67 58 60 60 58 66 72 82 81 76 72 65 52 61 54 54 55 34 36 36 30 22 23 23 32 30 34 39 42 48 48
100 100 100 100 100 100 82 98 73 89 91 82 86 73 63 60 62 73 74 78 89 83 79 67 62 63 62 62 60 36 31 36 32 27 28 29 31 39 35 42 46 46 41 35
100 100 100 100 100 100 97 87 76 72 100 88 87 81 76 77 77 95 100 100 96 87 84 80 69 74 79 73 66 30 30 34 37 38 36 38 42 44 43 38 39 27 26 25
100 100 100 100 100 100 100 92 86 81 99 94 96 94 72 82 90 90 100 96 99 94 85 88 82 72 79 91 54 42 42 37 37 42 44 39 37 45 45 45 32 23 25 33
96 100 100 100 100 100 98 98 100 99 90 100 99 92 92 84 92 95 99 98 90 91 95 86 79 74 90 70 62 51 45 43 44 42 44 49 50 43 42 26 23 30 33 37
96 100 100 99 99 98 97 100 100 100 99 100 97 88 71 82 87 89 83 92 80 88 76 83 96 79 55 51 52 56 48 50 52 55 55 56 55 43 26 24 29 32 33 35
100 100 100 99 100 100 100 100 100 99 99 99 99 82 73 80 78 76 84 84 84 95 80 90 86 83 65 46 53 47 50 49 51 49 39 27 30 24 27 29 31 33 34 34
100 99 100 99 100 100 100 99 100 99 96 99 98 92 69 82 73 76 91 90 88 94 80 93 92 66 50 47 46 40 38 46 52 58 55 39 37 28 29 30 31 33 33 36
100 100 99 99 99 98 97 95 100 98 87 90 99 96 84 79 75 87 99 98 90 72 87 85 69 54 51 39 33 42 36 32 50 64 63 52 47 32 32 31 32 30 30 32
99 99 98 96 97 92 88 78 84 73 85 97 90 93 88 100 97 100 97 80 71 86 90 80 52 44 39 38 37 35 25 43 63 70 64 55 47 32 31 30 31 30 31 34
100 99 97 97 80 85 86 80 75 72 85 91 91 91 83 94 99 96 97 94 92 74 73 67 48 36 35 36 38 32 26 35 46 56 56 41 35 34 34 34 32 32 33 32
99 99 100 99 95 94 98 89 87 83 90 81 90 98 97 97 96 96 91 87 84 77 83 41 33 31 33 35 35 34 27 32 34 36 38 40 38 36 37 38 39 38 37 37
98 95 99 100 98 90 83 92 82 85 88 97 100 98 92 95 96 94 74 83 77 58 36 29 28 30 35 35 32 33 29 34 36 38 40 38 40 40 42 41 42 41 40 39

GFSNW_850_rhum_126.txt.gz
RH
28 26 25 30 26 24 25 41 77 34 57 82 61 90 59 58 59 62 54 56 46 51 51 51 55 56 54 53 58 63 65 66 82 69 53 52 66 76 80 95 99 99 99 88
51 30 23 28 27 28 28 45 38 34 44 91 76 61 60 58 58 54 55 52 49 44 53 62 53 55 56 57 59 67 60 69 92 69 58 51 62 58 61 65 82 92 92 87
66 43 32 22 31 29 32 49 84 48 48 49 52 60 58 58 60 55 53 50 50 49 51 49 54 48 56 57 59 67 66 64 76 90 64 59 63 56 57 66 93 75 74 64
66 65 35 34 25 25 35 41 60 54 88 53 46 52 50 52 58 60 53 50 51 47 49 44 47 41 50 56 65 62 68 81 77 74 63 60 60 56 52 69 66 78 63 58
75 68 57 34 29 30 34 61 53 45 51 54 51 59 55 50 48 51 50 58 41 44 50 42 48 44 41 42 61 56 61 86 70 75 55 53 61 52 50 48 50 58 58 61
92 76 69 38 30 33 35 36 38 53 57 53 50 47 40 46 51 48 51 53 51 49 50 55 50 50 48 47 50 60 59 78 79 84 62 64 61 42 45 47 45 47 56 43
99 92 76 42 33 39 33 36 47 50 52 54 48 43 45 50 53 57 49 55 54 58 50 47 49 55 58 53 52 48 61 63 75 89 75 77 43 38 39 46 37 39 40 44
98 99 88 51 40 45 42 37 42 55 56 41 38 38 46 46 51 62 54 51 53 56 52 59 49 49 51 53 55 57 57 68 76 88 74 56 39 36 40 46 42 33 37 40
95 98 97 73 51 54 52 51 51 44 57 48 38 40 40 53 48 44 52 53 56 54 60 52 57 50 36 51 65 49 58 65 79 82 78 67 26 32 35 38 59 34 36 38
98 97 99 98 61 58 60 56 57 56 65 51 42 47 51 46 45 51 48 59 69 68 67 70 68 54 40 51 48 80 79 75 90 88 87 64 31 37 42 49 32 36 36 36
99 99 97 100 94 64 67 63 60 60 68 57 51 41 45 52 50 50 58 65 70 75 75 65 60 56 51 53 41 53 70 82 87 80 78 78 37 46 50 37 31 36 38 40
98 100 99 99 100 81 73 71 64 63 69 60 57 56 50 44 48 47 50 56 57 55 74 70 60 58 55 52 53 37 48 41 45 56 59 35 34 26 27 31 33 36 38 37
98 100 99 100 100 100 73 79 76 75 75 67 75 63 58 58 52 50 50 51 51 60 65 71 68 71 54 60 57 40 40 32 49 39 34 27 26 28 28 25 34 34 32 32
99 100 100 99 99 100 99 78 78 84 78 84 71 65 58 55 56 60 56 52 64 67 70 72 85 78 44 57 51 51 36 38 43 47 35 29 25 23 25 28 29 31 30 31
99 100 100 100 100 100 100 98 76 89 78 91 79 70 66 60 57 56 64 66 70 73 80 90 88 61 61 62 67 64 42 41 46 35 25 26 25 25 24 25 30 31 34 42
100 99 100 100 100 100 100 99 95 82 100 96 99 79 74 67 65 70 67 72 78 78 80 76 65 58 61 84 81 46 37 38 32 29 28 26 27 29 29 30 33 38 42 39
100 100 100 100 100 100 99 95 84 76 100 99 99 94 87 84 80 94 95 90 91 86 83 82 75 76 66 91 76 41 33 32 34 34 33 34 34 34 34 35 37 41 40 23
98 94 100 100 100 100 100 98 91 81 99 99 99 97 81 82 97 97 99 98 99 94 89 85 91 74 79 97 56 47 46 47 42 39 36 36 37 38 41 43 43 41 29 21
85 85 93 98 100 100 99 98 100 100 99 99 99 96 95 85 88 97 98 96 93 88 98 94 88 90 96 73 59 56 55 49 42 40 41 41 39 39 41 43 42 41 21 28
84 98 100 100 100 99 99 100 100 100 100 100 98 98 90 77 92 94 90 93 85 97 89 79 98 84 62 54 55 57 57 57 47 47 49 43 45 44 48 48 44 28 27 31
94 99 100 99 99 100 100 100 99 99 99 99 98 94 86 72 91 89 83 95 91 92 89 93 92 91 68 47 51 47 45 50 52 50 50 48 40 40 44 45 26 28 31 32
94 99 99 99 99 100 99 98 99 99 96 100 98 96 81 77 71 83 96 98 96 96 95 98 94 77 52 48 43 37 38 47 49 51 53 53 50 36 28 26 27 28 29 30
99 97 100 99 99 98 98 97 98 99 99 99 100 98 85 78 74 96 99 98 96 79 94 87 82 64 50 41 38 40 39 41 40 35 52 55 54 34 29 28 29 30 30 30
95 100 98 97 98 94 92 91 92 77 82 97 93 96 94 99 99 99 98 94 97 97 99 89 71 46 37 30 32 36 38 34 33 44 49 59 58 44 34 30 31 31 30 32
98 100 96 97 80 85 94 85 82 78 86 94 94 98 98 99 99 99 99 97 96 89 85 78 46 39 38 37 34 33 34 28 33 56 66 63 61 53 43 33 32 31 31 31
92 100 99 96 96 94 99 92 93 83 94 100 100 99 99 97 97 98 96 97 91 82 86 46 41 42 35 34 37 36 34 30 27 44 59 61 57 47 35 34 34 36 36 36
99 97 100 97 92 90 89 89 89 84 97 98 99 98 95 96 98 98 98 94 85 67 48 48 60 52 35 34 32 33 35 35 29 32 42 48 42 40 37 35 38 43 45 45

GFSNW_850_rhum_129.txt.gz
RH
63 48 31 20 25 24 26 45 57 36 42 64 76 93 68 61 61 61 67 60 52 56 54 59 60 60 59 54 61 70 64 64 86 75 57 64 71 80 83 93 96 96 95 90
66 64 46 31 24 22 24 36 42 44 51 88 83 65 64 63 63 64 60 60 52 48 57 68 56 57 58 57 64 66 69 84 96 76 64 59 64 72 76 78 82 89 94 84
67 68 64 42 28 27 31 42 77 46 47 53 68 64 63 68 60 58 55 57 52 54 58 53 59 60 62 58 62 64 66 78 80 87 68 68 75 67 69 77 98 87 85 74
79 74 69 60 35 27 34 39 63 57 86 61 53 55 58 58 67 62 56 57 57 57 59 53 60 46 68 63 67 66 78 88 84 80 76 74 75 73 67 81 75 82 64 70
98 87 76 67 37 27 36 48 52 44 56 53 55 61 64 57 54 58 60 63 53 49 57 53 54 50 47 56 80 72 75 86 77 84 68 68 78 69 68 63 58 68 63 63
100 99 91 74 42 32 38 42 42 52 62 59 66 66 49 54 51 50 52 55 55 55 54 55 51 51 49 53 67 74 78 85 82 89 70 76 70 59 52 55 55 53 64 51
97 99 97 86 50 38 40 48 52 54 61 73 63 46 44 55 56 58 53 54 59 53 54 46 44 56 60 61 63 56 70 73 81 92 78 70 37 40 39 46 45 45 44 41
96 96 95 93 71 44 46 47 49 60 71 55 46 42 49 47 51 58 56 53 52 54 49 66 60 55 58 59 67 69 64 76 86 92 86 60 44 44 44 48 44 43 44 40
99 96 94 95 98 59 48 52 54 51 67 58 41 42 44 58 63 55 57 54 57 56 64 62 64 56 43 56 68 55 67 72 84 94 86 72 29 31 36 41 43 41 40 43
100 97 97 98 97 92 57 56 58 60 64 50 49 45 51 45 50 56 56 61 62 60 82 78 80 64 40 49 67 86 76 67 85 77 90 80 52 34 41 25 13 34 34 33
100 100 98 100 98 98 87 65 62 64 63 53 45 47 43 50 51 55 54 60 73 84 84 81 74 67 56 54 54 83 88 94 91 77 90 88 43 48 32 25 31 27 32 32
100 100 98 99 100 100 99 86 71 67 68 54 49 53 53 53 46 45 48 53 67 66 82 84 72 65 67 65 62 46 60 64 77 75 72 44 36 31 26 29 31 30 31 30
99 99 99 99 99 100 100 99 85 79 76 66 67 56 56 58 54 51 55 55 50 58 65 74 79 73 68 70 70 46 42 38 49 39 34 37 35 32 29 28 28 29 33 34
99 95 95 99 100 100 100 100 99 88 82 88 68 66 60 58 55 62 57 57 58 62 66 70 86 84 59 66 56 58 41 43 48 50 35 30 27 25 23 24 26 27 29 32
98 100 98 92 97 100 100 100 100 99 88 88 81 73 67 64 62 60 59 66 68 65 76 90 96 77 67 67 74 65 44 39 45 35 24 27 24 24 24 25 25 24 30 32
97 99 96 99 97 100 100 100 97 98 100 97 99 79 78 74 70 75 67 65 78 74 74 80 65 62 63 89 94 47 36 35 35 31 27 27 26 28 30 29 28 26 27 30
96 100 100 100 99 100 100 96 92 86 100 100 99 99 89 89 80 79 81 83 87 84 80 89 80 76 70 94 81 40 36 35 34 36 39 40 38 35 32 32 33 33 33 34
87 97 88 97 93 99 100 99 98 89 98 99 100 97 89 85 95 96 97 96 98 91 90 93 93 83 77 96 65 52 51 50 45 41 41 41 39 39 38 36 37 39 38 38
70 82 91 86 92 99 98 98 100 100 100 99 99 98 94 87 93 98 97 97 99 88 99 98 91 95 96 76 61 58 56 56 49 47 47 43 45 42 47 42 41 42 39 40
56 73 89 99 99 99 100 100 100 100 100 100 99 95 96 85 95 100 94 98 91 98 91 90 99 86 67 54 56 58 59 59 60 59 60 58 52 45 42 44 42 42 43 43
60 88 96 98 99 100 100 100 99 99 99 100 98 92 87 78 93 92 87 98 98 97 92 93 96 95 70 53 54 49 47 46 47 54 56 58 57 52 46 42 42 49 50 43
93 98 99 100 99 100 99 98 97 98 94 99 98 96 94 80 73 85 99 98 98 96 96 98 96 77 58 46 38 34 39 40 40 40 47 52 55 56 53 50 39 47 35 32
64 73 100 100 98 98 97 96 98 98 97 99 100 99 90 89 85 99 99 98 97 98 98 91 84 64 48 41 35 35 35 35 36 31 31 35 44 52 56 50 32 30 34 33
82 96 98 97 97 97 92 92 90 76 86 99 95 97 92 97 99 98 99 93 97 97 97 92 76 49 39 42 41 37 37 37 36 30 37 47 48 58 54 34 34 34 34 33
98 99 97 98 84 85 92 88 84 86 86 94 97 99 100 99 99 98 99 97 96 92 86 80 50 48 57 56 48 41 39 37 35 31 44 60 61 61 51 36 36 36 34 36
99 99 98 95 98 92 98 95 92 89 96 100 100 99 99 98 98 98 97 96 93 82 88 47 52 61 60 54 44 40 39 42 38 32 37 58 65 61 57 52 42 36 39 41
99 98 83 72 84 79 86 91 100 99 100 99 99 98 94 96 98 98 93 94 87 62 61 65 50 55 52 44 42 44 40 59 54 48 42 41 57 61 59 51 39 39 43 45

GFSNW_850_rhum_135.txt.gz
RH
69 61 64 67 59 41 20 25 43 37 49 54 81 92 69 59 59 60 66 64 60 61 60 65 69 67 60 56 59 72 65 79 91 81 63 68 76 83 87 91 83 95 87 84
78 74 71 70 61 47 25 30 41 42 45 76 83 71 67 66 67 66 67 66 57 52 62 69 62 62 59 59 68 72 69 84 92 71 70 76 83 83 80 78 87 83 93 84
84 73 76 77 65 46 32 30 64 41 49 60 71 70 66 68 64 64 63 62 56 58 62 58 63 64 66 63 66 65 63 84 76 62 60 74 89 80 86 82 95 85 81 76
78 81 80 81 71 52 37 36 62 54 78 62 67 64 68 69 68 65 61 61 65 64 69 64 68 62 71 70 68 75 76 93 92 87 82 79 79 77 84 94 79 82 49 64
76 96 84 87 79 59 39 35 48 56 60 62 59 64 68 70 62 66 70 71 59 68 66 64 59 62 70 70 83 83 85 88 88 93 81 84 90 78 76 72 77 82 75 72
79 82 92 84 87 69 43 46 49 50 63 66 68 66 56 61 58 52 51 62 62 66 65 53 46 46 49 52 86 90 92 95 87 90 76 77 62 57 66 72 75 61 73 54
92 86 90 91 92 91 58 49 45 56 51 76 68 53 60 56 59 54 55 58 59 50 52 51 50 55 61 68 74 74 89 85 86 95 78 65 32 39 44 60 51 58 59 51
97 95 97 93 91 92 90 58 48 59 70 62 54 56 56 48 50 59 57 55 55 54 51 57 56 49 58 72 83 82 75 83 82 96 96 67 36 44 53 54 43 48 56 51
100 100 98 97 92 95 95 88 63 56 64 58 46 47 47 57 61 57 58 58 59 59 66 72 52 41 41 54 76 84 84 74 80 87 99 72 24 30 42 31 30 29 42 43
99 99 100 100 100 99 100 98 91 64 63 53 54 55 50 47 54 58 58 64 69 63 82 79 83 66 52 55 83 98 96 94 89 73 80 76 58 40 41 24 15 19 30 31
99 100 100 99 100 99 100 100 100 91 70 75 69 60 50 49 52 53 52 60 74 85 84 82 79 83 66 56 63 88 86 93 89 71 78 87 49 52 46 28 19 26 26 26
94 98 100 97 100 100 100 100 100 100 96 86 89 88 84 56 54 51 52 54 65 64 81 88 82 80 80 70 62 73 73 68 80 75 70 45 43 40 31 31 34 30 30 27
97 99 100 99 100 100 100 100 100 100 100 96 95 77 71 69 68 68 59 52 50 58 54 63 78 79 76 78 80 59 61 55 66 60 45 49 43 38 29 28 31 27 30 32
96 94 99 100 98 96 100 100 100 100 100 100 89 84 79 76 68 65 65 62 57 56 65 76 85 89 65 74 60 60 44 56 60 60 38 32 30 29 28 25 26 26 25 26
89 90 88 88 83 84 95 99 97 97 100 99 94 88 80 81 83 80 65 66 73 71 80 92 97 80 75 79 81 81 46 41 47 49 35 32 30 29 29 34 34 34 34 31
73 70 81 83 86 94 100 100 94 97 100 100 99 98 90 79 83 80 88 78 76 86 97 97 82 75 66 99 98 60 49 46 41 45 44 42 40 38 38 40 40 37 40 39
63 65 67 70 77 95 99 95 90 99 100 100 99 99 99 99 92 87 85 86 88 85 98 100 99 80 80 99 88 59 53 50 49 47 48 49 47 46 43 43 44 47 47 44
62 55 52 54 67 80 90 78 90 100 100 100 100 99 99 97 90 94 94 94 97 97 99 100 100 92 99 98 74 57 57 58 59 58 56 56 56 56 56 55 55 55 54 52
66 58 53 52 51 90 94 84 92 100 100 100 100 99 96 100 96 94 98 99 100 93 99 99 99 94 96 76 63 58 58 58 53 56 59 58 65 64 57 60 60 63 61 59
63 66 55 89 91 87 87 75 100 100 100 100 99 99 98 94 100 100 99 100 96 98 92 96 99 94 70 56 57 61 59 58 60 62 57 51 52 58 58 56 54 58 60 58
82 72 93 93 89 94 95 97 100 99 99 100 98 98 88 89 95 95 97 98 98 98 89 97 97 94 75 55 47 54 53 48 44 45 43 42 45 42 43 42 43 49 57 58
91 98 98 97 94 95 100 98 99 100 94 92 96 96 98 94 91 97 99 98 98 95 96 98 97 78 53 54 52 47 52 49 44 44 36 32 42 53 54 54 53 48 59 58
90 94 70 99 96 97 97 96 98 97 92 91 99 95 99 99 99 100 99 98 96 95 98 92 85 68 50 49 61 53 51 47 51 45 36 37 42 48 51 53 55 56 57 55
97 98 97 97 95 95 93 92 89 69 82 98 99 99 99 100 99 99 99 91 97 99 98 94 82 64 70 67 61 44 38 41 58 53 45 52 51 47 50 54 47 41 42 43
99 99 95 96 78 74 81 83 77 70 91 99 100 98 99 99 99 98 98 98 96 93 89 84 80 99 94 85 82 75 57 40 34 35 52 57 61 58 52 56 45 47 49 48
95 100 97 97 99 94 90 100 99 92 93 99 100 96 97 98 98 99 96 97 94 85 93 88 100 100 99 100 98 92 57 48 46 36 30 30 47 62 60 56 57 50 48 46
98 96 72 74 75 77 74 76 70 67 94 93 92 95 91 96 94 98 94 96 92 97 89 69 75 84 94 69 60 41 34 45 33 33 40 47 36 46 62 57 55 58 58 56

GFSNW_850_rhum_138.txt.gz
RH
73 74 67 63 60 51 34 25 41 41 45 53 81 92 64 58 62 63 67 65 60 63 65 67 70 69 67 57 61 71 66 78 89 83 66 70 76 82 86 87 86 86 93 84
73 73 72 69 66 56 37 31 37 37 37 75 84 74 71 66 67 66 70 69 60 55 65 69 65 64 62 60 67 75 68 82 85 67 70 81 87 86 81 77 86 91 92 82
71 73 73 74 71 60 39 34 62 35 42 61 70 67 66 69 66 66 66 64 59 60 64 62 66 64 66 65 66 65 64 82 73 57 52 76 94 87 86 80 98 84 79 74
67 72 76 74 74 63 39 38 59 52 76 64 68 64 68 68 68 67 65 62 66 66 69 66 69 64 71 73 70 77 76 92 92 87 85 80 78 79 89 92 77 86 54 67
76 75 73 73 73 68 43 38 46 52 61 62 60 65 71 69 62 64 68 69 59 70 67 62 54 62 69 67 86 83 85 90 91 97 82 86 91 81 79 77 85 81 75 78
79 82 78 76 77 78 53 47 49 52 64 68 64 60 53 61 60 54 52 63 65 69 68 54 50 47 48 54 84 91 94 96 88 87 78 80 66 59 70 71 69 67 82 57
96 98 87 81 84 84 83 57 50 54 49 71 64 54 59 58 60 58 57 61 60 50 52 52 53 60 65 69 74 76 93 88 86 95 80 61 32 40 46 62 58 56 55 46
99 98 99 93 90 87 88 83 56 54 63 62 53 54 57 52 49 60 59 56 55 55 51 56 52 45 50 74 83 90 78 86 79 96 99 72 30 43 54 55 41 53 56 50
96 95 96 100 99 95 98 97 84 59 58 63 46 48 48 53 57 56 55 59 61 60 65 62 54 44 34 50 85 89 84 78 73 89 97 82 27 34 45 42 28 22 48 49
97 94 94 99 100 98 99 99 100 82 64 59 54 55 51 46 54 57 54 64 70 65 78 77 81 64 51 49 82 92 98 94 90 77 83 79 58 50 41 30 14 21 34 36
98 96 97 100 97 99 100 98 100 100 76 83 81 69 59 55 53 52 52 60 73 83 81 78 73 79 66 59 66 90 90 94 88 75 89 90 49 50 50 30 21 29 29 27
97 97 96 100 98 100 100 99 100 100 99 88 94 90 94 93 84 54 52 51 61 64 81 84 77 78 80 70 61 77 79 72 86 77 68 46 44 38 31 33 34 30 32 29
91 88 92 99 96 100 100 100 100 99 100 96 95 81 79 80 74 78 62 60 53 57 58 65 72 89 76 77 76 63 69 58 70 67 50 47 46 35 34 32 31 27 29 29
95 93 88 87 92 93 91 97 99 99 100 100 92 89 84 77 74 72 74 73 68 66 71 77 94 99 71 76 65 63 50 61 62 67 50 39 37 34 32 35 33 31 29 33
85 88 87 84 84 82 82 84 81 79 92 97 93 91 83 72 83 90 80 72 74 76 87 99 99 90 76 86 90 90 52 47 48 49 36 41 39 38 39 42 41 43 43 44
57 65 68 65 76 82 78 92 89 100 100 100 99 94 82 79 94 92 88 91 83 86 98 99 99 98 77 99 98 68 52 52 48 44 42 44 43 43 44 49 49 49 47 46
58 57 56 59 63 70 77 88 100 100 100 99 99 99 98 99 96 93 91 89 90 87 99 100 100 96 86 99 89 62 51 50 51 52 52 55 53 53 54 56 56 58 58 57
57 61 58 52 48 50 56 60 79 91 100 100 100 99 99 96 89 91 91 95 98 96 98 100 100 97 98 98 77 56 57 58 59 58 58 60 60 59 52 48 51 55 60 56
26 32 48 50 41 53 69 74 87 92 94 100 100 98 96 98 97 92 99 100 100 96 98 98 99 97 97 84 66 60 60 60 53 56 57 58 60 48 45 43 44 55 46 44
32 48 60 76 99 90 89 88 95 100 98 100 99 96 98 90 100 100 100 99 98 98 94 97 99 90 65 56 64 61 54 62 67 67 65 52 48 46 42 43 53 58 60 56
66 78 78 91 85 79 74 90 99 99 99 99 96 97 86 86 97 96 90 98 98 98 88 97 96 93 71 58 57 60 60 57 58 56 52 50 47 44 57 52 54 57 59 54
94 92 89 97 94 91 97 94 96 99 94 90 95 92 92 87 91 93 99 98 98 96 94 98 98 83 63 60 60 60 55 54 56 54 45 47 55 58 58 57 56 53 56 58
60 83 91 95 85 96 98 96 98 96 89 89 97 91 90 98 99 100 99 98 95 93 98 94 89 72 86 85 70 59 60 59 62 69 79 59 45 60 61 59 55 47 39 40
71 98 99 96 94 96 94 92 90 70 81 97 99 94 99 99 99 98 99 94 98 97 96 94 83 94 99 100 92 95 96 90 85 67 46 33 33 32 58 63 61 52 48 42
84 96 95 99 87 72 76 86 78 77 90 95 99 99 100 98 99 94 92 97 95 93 90 86 99 100 99 99 98 95 87 64 78 90 77 58 32 32 28 51 63 62 56 52
94 96 92 97 98 96 82 82 94 97 95 90 96 98 98 86 95 99 94 97 95 92 98 98 80 82 65 64 79 70 68 49 46 47 51 58 43 48 46 33 30 50 62 65
98 95 86 74 68 78 63 60 54 54 76 95 83 98 93 94 98 94 95 96 73 89 98 88 76 60 49 56 67 68 67 47 43 42 53 61 50 49 51 40 32 35 34 37

GFSNW_850_rhum_141.txt.gz
RH
62 63 59 58 53 53 38 24 42 42 42 53 80 91 62 58 64 62 69 64 61 60 64 68 70 67 63 60 60 70 64 75 88 86 70 71 78 82 83 82 83 79 86 84
64 63 62 58 56 54 41 28 31 39 35 74 85 75 72 65 64 65 72 68 63 57 63 67 66 65 63 62 66 75 72 81 85 60 69 80 87 85 82 76 82 93 90 74
64 64 63 60 59 54 43 35 63 29 40 61 71 68 69 71 67 68 68 64 60 62 67 65 67 66 68 67 65 65 63 82 69 57 49 76 94 91 87 78 96 84 76 67
66 63 65 66 61 55 45 38 60 54 81 66 69 62 67 69 71 69 68 66 69 66 71 70 73 67 75 75 72 77 76 91 92 88 82 80 76 73 90 92 75 83 54 67
70 65 70 67 67 60 52 45 46 50 61 63 61 65 71 66 62 69 69 70 60 70 67 62 62 67 70 69 89 86 86 84 92 96 78 81 88 80 78 76 82 79 72 72
96 72 75 76 70 71 65 57 50 51 57 66 59 54 54 58 61 57 52 63 65 72 70 54 48 46 48 53 85 92 95 97 90 87 75 78 60 61 61 72 73 69 78 55
99 99 91 86 81 79 78 72 52 51 56 70 61 54 58 56 61 62 58 62 60 52 53 53 54 62 66 66 73 78 96 90 86 95 76 53 31 44 48 59 62 56 54 47
96 98 97 95 92 89 89 84 69 50 64 61 54 51 57 51 50 61 61 58 59 58 53 60 50 43 42 74 86 90 80 85 80 92 94 69 38 42 56 54 41 54 54 49
93 95 93 91 94 96 97 94 90 71 61 71 47 50 49 55 56 55 52 58 61 62 63 59 56 41 32 44 88 91 83 78 70 96 99 71 28 32 47 46 27 16 50 50
98 94 89 90 97 91 100 100 99 95 77 74 58 57 52 47 54 56 51 60 70 66 79 76 75 60 46 46 79 96 90 90 90 75 82 77 57 41 44 34 17 23 36 34
94 100 93 93 98 98 99 99 100 100 91 87 91 84 65 60 56 56 54 60 72 80 83 80 75 77 61 58 65 87 86 88 88 77 84 89 51 52 43 29 22 24 31 30
91 92 97 94 92 98 99 99 97 99 100 94 78 76 83 93 88 70 57 60 60 66 79 81 75 79 82 67 59 77 78 67 82 73 67 46 46 43 30 30 34 32 36 35
88 98 95 97 100 91 97 100 100 97 99 90 88 77 80 79 81 82 83 76 71 74 66 90 97 99 77 82 82 61 71 60 71 69 53 47 44 42 39 36 33 31 35 41
91 98 100 100 99 96 95 89 87 90 99 100 80 81 81 76 72 71 72 72 74 70 79 95 98 99 76 85 68 66 52 64 66 67 52 43 39 36 36 40 44 38 38 39
76 87 93 94 94 88 81 78 68 75 97 99 90 78 72 70 76 87 89 82 81 78 88 99 98 99 87 84 91 93 54 52 56 58 41 41 40 39 41 46 47 49 52 52
58 60 65 70 70 64 76 66 96 99 100 100 99 89 63 73 80 81 90 97 87 88 98 99 99 96 90 99 96 66 55 54 54 53 50 52 52 50 50 52 53 54 59 61
47 56 58 57 55 53 64 75 98 100 100 97 96 99 99 100 99 96 94 91 94 92 95 100 99 98 98 99 91 60 57 55 55 56 56 58 55 56 58 60 59 57 54 47
25 31 45 58 59 51 42 42 61 77 85 96 100 97 96 99 98 90 95 97 100 97 99 100 100 100 100 98 70 60 59 60 61 58 57 60 62 60 61 57 51 45 43 47
22 22 23 29 38 49 53 80 93 93 91 95 98 99 94 95 98 96 99 99 99 95 99 99 99 98 97 81 74 64 60 61 64 65 65 66 67 63 51 46 52 61 58 60
29 29 46 67 93 88 85 80 88 96 92 100 98 88 94 95 100 99 96 99 94 98 91 93 98 80 65 67 63 64 68 71 68 72 72 70 56 49 56 61 62 62 58 55
63 80 80 91 86 78 78 79 97 99 99 98 95 97 89 94 97 92 83 97 97 98 86 96 91 91 81 69 72 68 66 65 64 62 60 58 59 62 64 64 62 59 53 49
87 89 85 80 95 90 88 96 94 98 95 92 87 87 86 86 89 90 99 98 98 97 89 98 98 84 98 94 97 93 88 84 79 73 67 59 47 45 47 56 68 65 54 48
64 79 95 88 83 98 97 99 96 93 87 98 98 94 98 99 99 99 99 99 94 92 98 92 88 87 99 99 99 92 85 79 78 85 81 69 63 45 36 37 42 60 66 57
67 88 85 88 91 96 92 93 92 86 96 98 91 90 98 99 98 96 92 93 98 100 100 92 90 94 100 92 70 65 58 62 58 49 42 41 51 54 48 44 41 40 42 61
74 93 90 96 84 81 79 87 90 99 96 94 100 100 96 98 94 96 96 99 97 90 91 89 88 83 92 91 92 85 78 70 72 64 39 29 32 39 40 35 37 42 37 35
86 94 94 89 98 93 86 81 80 83 73 86 74 92 99 95 93 90 88 89 87 85 95 77 94 97 89 89 73 58 51 68 75 79 59 42 46 46 51 45 44 42 38 36
98 95 86 64 70 74 61 53 52 52 70 90 70 96 81 92 98 96 94 98 90 66 58 62 71 67 61 52 44 41 44 45 43 68 65 48 49 49 46 42 41 36 34 32

GFSNW_850_rhum_144.txt.gz
RH
57 58 56 50 46 46 35 24 47 36 35 64 67 67 52 58 62 67 62 55 51 43 53 52 54 52 52 57 55 57 54 54 64 53 60 59 60 57 54 56 69 62 65 76
60 56 58 53 46 46 40 27 24 31 33 68 63 66 64 59 56 57 61 59 55 52 51 55 56 56 64 62 54 58 58 60 60 52 62 66 69 62 58 58 60 69 60 48
62 57 54 56 48 46 43 32 63 33 39 59 50 57 62 59 68 63 66 60 57 55 58 57 59 57 64 68 61 64 58 59 52 37 37 55 69 66 64 61 76 53 54 40
64 58 52 56 55 49 47 43 55 50 65 54 58 54 57 61 62 68 68 62 60 56 57 60 60 58 64 70 72 70 61 73 73 60 54 53 53 47 56 77 63 51 26 30
58 54 52 52 58 53 52 46 47 50 61 64 57 57 59 55 58 60 63 64 51 57 52 44 44 52 55 50 76 68 70 73 75 73 52 57 67 54 53 50 52 51 47 43
46 51 52 55 68 62 62 61 54 46 53 58 46 44 50 53 60 59 53 56 52 60 54 53 47 47 48 47 58 68 73 75 71 55 56 56 48 34 42 46 43 45 55 38
36 52 69 84 85 76 69 71 56 52 51 52 47 52 54 51 56 57 60 62 56 53 53 53 53 61 61 59 57 64 72 72 68 72 60 59 29 32 34 40 40 40 39 36
31 56 84 95 94 95 82 77 72 56 63 55 54 52 52 52 51 55 59 60 60 58 55 52 44 36 38 65 73 68 66 59 60 65 71 43 28 42 42 44 26 30 37 36
29 72 94 91 88 94 93 86 82 78 66 65 47 50 51 50 46 46 54 58 60 64 57 54 52 42 32 35 84 80 76 67 61 76 81 54 27 32 44 39 23 19 36 34
42 78 94 92 87 86 86 98 94 88 84 78 66 56 54 52 54 52 51 59 70 66 63 65 62 46 38 34 51 91 90 83 84 70 72 56 38 37 46 40 16 25 30 34
68 84 89 92 91 85 95 96 99 99 90 75 78 83 79 63 57 66 58 62 71 71 72 66 56 55 44 46 48 71 68 74 78 70 77 77 46 52 44 25 23 24 28 30
75 91 92 93 87 97 100 89 96 99 100 87 84 78 78 82 84 76 62 63 60 66 68 67 62 61 59 49 44 65 59 50 54 54 55 41 46 39 36 36 41 36 37 36
89 90 92 95 90 93 95 91 83 100 100 88 89 77 75 78 74 88 88 74 68 81 74 79 86 99 63 62 57 43 53 50 56 56 40 41 35 36 43 39 41 42 43 46
94 96 92 94 96 98 99 99 96 98 100 100 85 80 87 75 79 81 81 82 78 74 75 96 99 100 80 89 61 58 47 56 52 51 44 42 42 41 42 43 46 49 50 52
73 86 94 95 98 97 96 88 79 85 92 94 87 74 54 52 72 84 89 87 85 84 86 97 95 98 92 82 76 84 57 52 55 53 39 40 42 46 50 53 55 55 57 58
61 61 63 68 75 79 74 66 73 88 99 92 99 92 78 76 77 79 86 95 90 91 89 99 99 88 90 100 99 57 58 61 57 54 53 55 57 56 56 58 58 60 65 67
40 45 53 57 57 55 58 70 97 100 100 97 95 87 98 95 99 100 96 96 98 95 98 100 98 99 98 98 91 60 58 57 57 57 59 60 59 59 59 62 66 65 59 47
20 20 25 36 52 54 50 45 56 80 89 85 89 88 95 99 99 93 96 99 100 98 99 100 98 100 100 98 73 66 65 64 62 59 59 64 69 72 70 70 58 55 57 56
22 20 21 25 28 38 48 72 79 64 77 99 99 86 85 92 99 96 97 97 98 97 99 98 99 100 97 74 72 70 72 74 75 66 65 71 69 62 60 66 68 72 68 59
30 26 33 71 84 86 85 97 89 95 98 100 94 83 86 94 98 97 95 99 91 96 77 97 100 74 60 65 73 78 73 69 69 71 71 69 63 53 52 59 59 69 70 66
54 78 77 91 88 78 84 83 95 97 97 98 92 91 80 85 90 84 90 92 90 92 74 86 83 80 71 87 93 85 82 83 87 89 87 81 75 70 56 50 56 48 52 56
72 75 72 78 83 95 84 91 89 91 83 92 95 91 88 82 88 97 96 91 91 91 80 95 85 69 98 98 99 96 94 82 77 80 88 91 89 80 64 56 49 47 34 33
63 66 92 85 82 95 94 95 91 93 90 98 98 96 98 99 100 99 98 100 89 84 95 79 67 85 100 96 96 75 59 62 64 61 56 53 51 51 56 52 48 46 38 30
66 70 87 82 91 90 82 80 83 88 97 98 98 97 95 99 98 88 96 74 91 91 95 74 60 93 99 97 85 64 47 45 52 52 57 68 72 60 40 34 38 44 41 27
70 90 90 94 78 75 75 86 94 91 92 86 96 90 96 88 95 90 84 92 91 83 78 84 98 99 98 75 72 63 54 47 46 45 49 41 46 75 70 47 43 30 31 38
78 92 95 92 97 94 93 87 82 78 71 76 74 79 95 85 94 90 80 81 72 77 88 68 64 71 68 57 59 58 61 57 41 49 54 58 50 46 68 56 44 41 39 39
99 99 86 74 71 60 56 72 74 69 79 82 78 92 82 73 92 96 84 87 68 70 60 52 44 44 49 54 58 48 45 44 42 47 64 64 50 46 58 60 42 40 41 36

GFSNW_850_rhum_147.txt.gz
RH
55 50 42 42 46 45 31 27 46 35 41 60 47 58 43 47 50 58 48 42 35 29 36 34 37 38 44 45 44 45 44 44 54 44 48 46 41 39 36 43 53 49 53 68
56 53 45 42 44 47 38 41 34 28 44 60 46 52 50 46 48 46 49 47 47 42 38 45 44 44 56 52 46 48 46 48 54 49 54 54 59 48 42 38 51 60 52 46
52 49 48 43 40 46 42 45 65 52 49 49 36 44 46 49 63 50 53 48 47 46 46 45 48 48 58 56 53 59 54 43 43 40 35 43 55 51 49 50 70 42 40 34
52 44 36 39 35 40 46 47 52 47 53 44 42 44 45 47 52 56 56 52 46 43 44 45 46 45 55 60 66 58 50 58 64 50 42 38 40 39 35 59 56 41 26 22
50 38 25 27 31 32 49 57 50 49 46 49 46 48 44 45 45 50 50 56 39 43 40 33 33 36 39 37 59 57 54 59 58 56 32 36 47 41 38 37 35 42 43 41
45 33 26 20 35 37 56 59 53 52 47 45 40 35 39 43 50 50 48 47 44 45 42 42 40 36 37 33 42 53 56 62 57 54 43 47 43 29 29 35 35 34 41 32
50 36 32 35 42 60 63 68 59 57 47 44 39 43 45 42 45 48 50 54 48 53 50 51 50 46 44 44 42 42 51 57 57 64 50 56 29 24 28 28 25 27 30 29
57 41 37 55 63 79 83 80 71 65 57 50 49 51 45 44 44 46 47 50 58 57 54 48 45 39 39 50 58 51 57 50 56 64 49 38 29 36 35 35 27 19 24 25
58 46 35 46 69 80 85 90 88 79 67 54 48 50 49 50 46 45 48 57 58 64 49 49 53 49 30 40 74 74 62 61 54 56 72 56 30 35 36 35 31 19 26 26
61 47 61 65 78 83 84 85 91 91 82 76 64 59 55 52 55 56 49 54 66 65 55 60 59 53 32 38 38 81 80 76 76 66 66 50 38 39 42 44 21 25 26 28
54 53 77 90 89 88 85 83 90 97 90 81 78 72 70 69 61 62 57 62 66 64 66 60 56 52 40 41 33 57 60 67 74 66 71 78 37 46 43 33 28 30 34 38
58 69 82 86 91 92 94 95 84 92 99 85 69 83 83 80 77 69 66 62 56 55 63 57 51 57 49 45 51 43 54 42 44 49 50 34 40 35 37 38 39 40 41 42
70 68 93 98 95 97 92 99 98 94 99 84 88 81 81 75 76 80 80 73 67 66 66 86 94 93 63 65 54 48 41 39 51 44 33 33 34 37 40 40 41 47 50 51
91 99 96 91 97 93 99 100 98 100 99 98 73 74 72 74 77 81 86 84 81 76 82 89 94 100 74 82 61 62 46 50 50 48 41 38 37 38 41 46 50 51 53 55
70 82 92 89 92 97 100 99 98 97 91 88 79 78 55 55 58 85 90 92 94 90 89 92 99 96 84 89 80 77 56 55 57 56 40 41 44 48 51 54 53 53 56 58
49 50 54 63 74 86 89 77 76 75 86 98 80 78 74 74 80 83 90 89 95 93 91 96 96 87 77 93 90 54 54 57 57 54 53 54 55 56 54 53 54 58 62 68
39 48 54 56 56 55 56 78 99 98 100 100 96 82 88 97 94 94 96 99 100 98 96 100 98 99 93 96 88 56 55 55 55 54 54 55 51 52 58 64 68 67 64 61
25 26 27 34 46 53 52 49 75 95 93 91 95 82 80 98 99 98 100 100 100 100 99 100 99 98 100 98 64 54 59 63 63 59 58 65 68 68 67 62 66 69 68 69
24 22 22 23 28 34 46 44 53 48 63 91 96 80 70 85 98 97 99 99 96 93 98 97 99 96 95 79 69 65 70 70 69 70 69 68 64 62 58 59 62 66 64 66
34 30 30 89 73 89 88 80 84 89 84 90 93 79 72 79 92 91 85 99 88 88 70 93 98 78 59 54 56 78 82 84 84 75 76 83 80 75 73 69 63 61 60 55
46 71 92 87 93 81 90 96 97 95 94 93 80 71 69 79 76 70 80 80 85 88 61 79 72 61 47 79 85 88 88 86 84 71 75 91 94 94 88 82 74 69 63 63
73 81 78 76 85 94 92 78 77 81 70 80 96 89 91 91 89 76 89 86 81 80 74 90 75 48 84 96 98 85 70 62 67 69 58 56 70 71 71 72 70 54 43 39
60 60 87 90 86 89 84 82 77 86 83 96 99 93 99 97 99 98 92 96 82 74 91 70 50 74 96 99 86 72 79 58 74 63 62 55 56 52 54 57 55 70 48 37
70 82 90 81 82 72 66 63 66 82 96 99 97 90 88 88 98 90 93 69 84 94 90 73 43 80 100 94 94 66 79 70 67 65 62 52 42 46 51 54 56 62 61 40
72 85 84 86 68 76 81 84 86 78 96 92 82 82 86 82 95 75 75 84 85 69 51 70 90 90 99 98 92 73 58 61 42 43 61 53 37 50 53 47 59 54 41 50
67 84 95 83 88 78 95 94 97 96 94 95 84 82 86 80 74 78 80 75 57 48 80 80 69 62 57 58 61 57 56 54 60 63 65 64 58 51 52 48 38 42 42 42
99 99 94 81 78 72 67 86 84 79 89 88 82 94 78 62 78 66 51 62 58 63 59 52 45 35 38 42 45 47 52 57 62 61 64 63 48 44 51 53 29 36 42 48

GFSNW_850_rhum_150.txt.gz
RH
49 48 47 44 43 50 32 41 70 35 49 71 49 73 45 41 47 53 46 43 37 31 31 32 35 37 48 41 42 46 50 54 80 58 51 50 53 43 45 77 64 66 69 80
50 45 37 39 39 47 41 41 39 40 51 84 64 48 50 45 45 43 46 44 46 40 36 46 43 44 53 49 45 56 50 61 77 62 58 54 61 50 48 44 67 77 77 78
54 46 32 24 30 42 44 49 82 50 45 42 41 48 48 52 53 49 50 48 46 44 45 42 48 50 57 52 52 54 54 50 55 73 49 47 61 55 54 56 92 71 60 42
55 46 31 22 20 34 44 47 58 49 74 54 47 44 43 49 57 57 53 51 51 45 44 45 47 42 64 60 62 58 58 65 60 61 58 52 50 49 47 66 61 67 38 39
56 49 39 26 17 26 47 59 59 49 46 45 49 50 47 44 51 50 54 58 40 44 49 43 38 35 42 46 65 60 57 75 59 68 54 54 56 49 47 44 41 48 53 54
60 50 43 31 22 42 53 58 56 53 48 47 45 43 40 43 47 48 44 46 45 46 46 48 45 43 39 38 58 67 68 77 74 78 49 58 67 46 45 46 43 41 49 37
72 56 48 43 32 58 80 72 61 62 57 51 45 42 42 42 45 53 48 51 47 53 47 46 48 48 44 42 41 41 54 64 72 88 68 79 44 30 27 35 37 35 36 35
82 78 55 50 48 44 75 86 75 70 72 53 48 49 50 44 44 51 45 47 58 56 53 56 55 52 43 48 64 65 55 63 72 83 72 57 39 38 37 38 35 26 25 26
75 77 68 51 63 66 76 76 87 83 78 62 52 48 51 57 55 52 49 52 53 59 60 59 66 68 39 63 84 70 66 67 79 68 84 80 34 39 34 36 41 25 29 34
71 74 70 62 55 68 81 95 84 88 88 74 67 58 60 53 59 65 48 54 61 64 68 73 72 66 34 44 55 93 80 81 93 86 85 71 41 40 39 52 35 27 32 38
77 83 67 62 61 76 78 90 88 94 92 80 78 76 66 69 68 71 58 67 70 72 79 78 71 66 48 45 48 71 81 89 90 77 81 89 43 46 47 42 38 39 39 41
88 87 70 66 80 90 89 95 86 91 100 81 72 77 72 75 78 71 66 67 61 61 76 75 72 69 59 52 58 42 60 54 64 66 68 43 40 37 36 39 41 46 50 51
84 81 74 67 89 89 94 96 98 96 100 79 74 76 79 76 75 81 78 75 70 63 61 84 93 98 74 80 66 53 48 38 54 51 39 37 39 40 37 42 48 53 54 54
79 87 99 99 95 90 95 100 96 99 96 98 74 72 73 74 73 73 82 78 81 75 78 83 96 99 74 84 81 76 55 53 53 55 46 44 42 40 47 51 55 56 55 54
63 73 84 96 99 100 100 97 96 99 98 97 86 71 58 52 53 77 75 89 91 91 92 98 98 99 83 86 89 81 60 60 63 63 48 50 51 53 53 54 54 54 58 62
57 56 60 65 74 87 91 86 96 89 90 97 94 66 69 71 76 76 73 97 98 97 94 90 79 79 75 92 89 54 50 54 57 58 57 56 55 54 55 55 58 60 62 64
38 40 49 52 55 58 66 89 98 91 94 91 98 89 89 85 90 93 88 84 88 98 98 99 86 93 86 98 88 57 55 57 56 56 56 58 58 61 60 63 67 63 65 68
28 27 26 29 39 49 52 56 86 98 85 94 100 93 75 88 96 99 100 100 100 100 98 100 100 98 97 98 72 57 59 62 63 61 58 58 62 66 63 58 59 62 65 62
27 26 26 25 27 32 51 39 42 56 67 93 89 93 89 85 93 96 98 100 99 99 100 100 100 99 97 84 72 66 64 65 64 63 62 66 68 67 66 67 67 64 64 64
35 33 32 92 73 63 70 90 81 81 76 80 84 77 90 71 87 93 92 99 96 98 86 89 99 80 62 55 56 60 71 75 79 81 79 80 84 84 81 79 80 78 68 58
54 77 91 82 91 85 87 97 90 85 98 91 86 67 74 67 86 86 73 94 88 89 88 94 91 93 65 61 60 67 78 78 79 78 76 73 75 77 79 77 75 68 57 60
78 87 80 84 88 90 94 96 80 91 85 83 89 98 85 82 83 81 74 92 92 88 76 96 96 65 62 76 80 85 75 53 53 60 64 64 69 68 68 65 62 56 46 41
60 56 77 81 89 86 96 95 92 93 78 85 98 86 98 98 99 97 95 97 88 78 92 84 78 74 88 93 87 70 58 60 56 49 40 31 34 35 42 42 35 49 62 53
64 79 99 92 95 93 87 84 86 81 91 91 95 95 97 96 99 98 98 93 98 97 96 93 92 90 94 100 82 79 62 53 44 47 38 58 53 54 56 42 29 52 54 50
65 80 97 94 72 69 74 76 86 85 92 90 89 84 84 90 97 94 90 94 96 85 82 94 87 76 76 90 96 84 43 59 50 39 49 57 59 61 62 54 44 39 38 54
63 82 96 83 87 82 83 89 89 90 94 90 81 88 94 94 91 88 90 88 84 83 92 73 63 55 55 57 49 41 48 59 56 49 52 54 56 62 54 55 54 44 34 45
95 95 67 70 80 80 71 79 72 65 92 95 84 99 90 86 94 95 83 85 84 48 41 34 32 35 36 37 40 42 41 44 48 52 54 56 51 49 51 44 28 34 43 49

GFSNW_850_rhum_153.txt.gz
RH
53 46 31 25 30 40 38 42 56 38 50 50 65 74 49 43 51 51 48 46 43 44 35 34 40 49 52 44 44 52 54 62 90 66 55 52 55 54 55 61 54 74 75 78
54 48 33 22 25 38 44 41 46 43 42 78 72 51 51 50 48 46 49 48 48 43 45 49 49 64 55 50 54 65 58 65 84 70 62 59 59 54 52 54 72 74 86 77
54 51 42 26 20 31 46 53 79 45 40 46 50 48 51 56 50 53 52 51 48 47 48 46 52 66 60 53 58 55 55 62 65 73 53 58 71 61 59 59 89 74 77 58
57 53 49 38 22 28 38 48 59 51 80 54 52 47 48 54 62 58 54 55 54 51 50 52 53 63 69 62 61 59 66 72 62 64 64 62 59 57 62 77 63 72 47 52
60 57 54 48 31 30 40 48 53 52 49 45 51 53 48 48 52 58 60 64 47 53 53 45 44 49 60 67 74 71 67 67 66 75 61 61 73 64 60 53 52 66 60 62
70 65 60 55 46 29 52 63 61 58 56 54 54 53 44 46 46 48 48 51 50 48 50 50 48 47 46 49 73 80 78 82 82 82 64 65 63 55 52 56 51 48 56 42
72 72 70 64 56 35 51 73 67 65 74 58 56 43 44 45 48 54 51 49 52 54 49 45 44 46 47 48 49 59 74 79 81 91 72 76 46 33 31 49 45 45 42 40
72 69 68 68 59 52 40 71 77 72 81 68 59 49 51 48 45 48 46 52 53 54 47 60 63 58 45 54 73 70 67 71 79 88 83 63 44 37 38 33 34 30 33 40
75 68 71 69 64 58 58 60 82 84 82 70 54 49 52 65 65 56 52 55 58 52 65 66 69 76 53 54 74 71 70 75 75 82 85 84 41 38 36 37 39 30 35 39
68 70 75 72 64 62 63 64 69 89 89 78 73 59 68 55 64 76 51 52 56 62 79 80 82 74 40 54 72 86 88 83 96 94 94 77 54 38 39 50 40 32 38 40
78 73 74 77 69 69 75 73 84 92 94 84 80 78 69 68 70 82 62 70 74 78 82 86 81 82 64 50 64 83 86 95 95 86 93 90 45 46 47 41 41 44 52 53
86 79 80 80 79 72 95 86 87 90 99 90 81 76 74 76 75 77 69 69 68 65 84 87 82 76 72 64 70 52 73 66 82 75 72 46 42 39 39 42 51 55 56 55
98 87 81 80 78 71 94 96 91 95 100 82 75 70 67 74 79 83 77 77 70 64 64 79 91 92 85 85 80 56 49 42 54 51 45 44 42 43 49 53 54 54 56 56
99 91 83 82 84 77 91 95 89 94 99 98 81 74 75 72 69 71 79 83 80 76 76 76 94 98 78 91 80 82 61 60 59 64 53 45 43 46 52 55 55 55 53 53
89 68 69 82 98 99 98 99 99 85 99 99 90 82 73 62 55 56 58 80 91 89 90 97 96 98 88 88 94 96 62 60 65 64 49 56 58 56 57 56 56 56 57 57
66 58 54 60 71 85 89 75 85 91 97 99 99 75 62 63 80 72 67 77 76 97 98 99 98 92 85 99 99 63 48 48 52 58 59 62 59 58 57 58 59 58 62 63
52 50 52 53 53 55 67 87 95 93 98 93 85 90 89 87 82 87 92 92 98 100 99 100 96 98 95 100 88 62 57 55 54 54 57 59 59 59 57 59 62 59 59 65
32 30 29 30 36 48 54 65 91 86 82 88 94 96 78 85 92 96 97 98 98 99 98 100 100 96 99 97 73 58 52 55 60 65 63 62 60 58 64 60 56 58 59 63
31 26 24 24 24 25 41 44 51 64 70 87 83 93 88 92 93 91 98 98 99 97 91 99 98 91 96 81 84 70 61 63 63 63 62 60 64 67 73 77 77 80 78 70
31 30 27 53 59 55 55 86 80 70 69 85 90 74 94 78 78 90 91 100 92 99 95 98 99 87 72 70 60 57 63 66 68 67 72 73 70 74 73 74 71 70 69 67
44 50 85 92 92 90 90 88 88 76 92 94 84 82 86 72 90 89 73 95 93 91 81 96 92 93 73 45 56 64 76 78 84 83 78 76 73 70 69 61 54 41 34 32
77 84 82 89 91 96 93 100 94 98 88 92 86 91 88 80 87 86 76 90 96 82 74 99 98 80 70 85 87 86 71 57 49 42 39 38 37 40 48 50 48 47 50 35
73 56 64 71 91 88 98 100 96 97 82 81 92 78 97 98 97 98 95 98 94 81 96 82 85 99 98 97 84 71 61 53 43 34 25 27 24 21 21 21 19 17 25 25
52 66 100 89 97 96 91 90 87 83 85 86 94 98 100 98 100 97 99 90 98 100 98 93 97 98 90 94 96 92 86 88 76 33 34 35 30 30 28 26 38 50 42 33
56 78 99 98 71 77 85 81 88 86 92 88 90 86 90 95 100 97 90 87 98 90 89 96 88 56 45 40 36 37 38 41 41 37 41 49 49 47 46 48 45 39 40 42
61 80 95 89 92 84 80 72 69 70 79 93 85 95 99 96 98 95 96 97 95 82 94 56 58 56 48 46 47 43 41 42 42 44 45 47 47 48 49 50 50 47 44 45
83 87 75 72 91 73 68 69 59 58 94 99 95 98 94 86 96 100 90 88 71 36 34 33 32 32 35 37 39 44 45 47 48 48 47 47 47 48 53 54 50 46 44 42